User: anonymous   Login
Location: Prague
(50.0830°N, 14.4670°E)
Time: 03:44:04
(UTC+02:00)
Language:

FO-29 - Orbit

View from above orbital plane
View from above orbital plane
View from above satellite
View from above satellite

Ground track
Ground track

The orbit data is extracted from the following two-line orbital elements,

1 24278U 96046B   23149.55763901  .00000003  00000-0  36019-4 0  9999
2 24278  98.5274 130.6536 0351253 105.1684 258.8581 13.53145053322417
Epoch (UTC): 29 May 2023 13:23:00
Eccentricity: 0.0351253
inclination: 98.5274°
perigee height: 799 km
apogee height: 1322 km
right ascension of ascending node: 130.6536°
argument of perigee: 105.1684°
revolutions per day: 13.53145053
mean anomaly at epoch: 258.8581°
orbit number at epoch: 32241

The dashed part of the orbit path shows where the satellite is in the earth's shadow,  

DLR